• In Kazakhstan
  • List of Countries
  • For 7 days
  • Water Temperature
  • Satellite Maps
  • Weather Map
  • News
  • Weather Widgets
  • user-avatar
    Login

    Hourly Weather Belek

    Today, 20 September, Wednesday

    Time Temperature Precipitation Wind Pressure Humidity
    00:00 +28°C° 0 mm 1 mps 757 mmHg 80%
    01:00 +28°C° 0 mm 1 mps 757 mmHg 77%
    02:00 +28°C° 0 mm 1 mps 757 mmHg 74%
    03:00 +28°C° 0 mm 1 mps 757 mmHg 70%
    04:00 +28°C° 0 mm 1 mps 757 mmHg 66%
    05:00 +28°C° 0 mm 1 mps 757 mmHg 62%
    06:00 +29°C° 0 mm 1 mps 757 mmHg 55%
    07:00 +31°C° 0 mm 1 mps 758 mmHg 48%
    08:00 +33°C° 0 mm 1 mps 758 mmHg 40%
    09:00 +35°C° 0 mm 2 mps 758 mmHg 39%
    10:00 +36°C° 0 mm 2 mps 758 mmHg 37%
    11:00 +37°C° 0 mm 3 mps 758 mmHg 36%
    12:00 +38°C° 0 mm 3 mps 757 mmHg 37%
    13:00 +38°C° 0 mm 4 mps 757 mmHg 39%
    14:00 +39°C° 0 mm 5 mps 757 mmHg 40%
    15:00 +37°C° 0 mm 4 mps 757 mmHg 44%
    16:00 +36°C° 0 mm 4 mps 757 mmHg 48%
    17:00 +35°C° 0 mm 4 mps 757 mmHg 53%
    18:00 +33°C° 0 mm 3 mps 757 mmHg 59%
    19:00 +31°C° 0 mm 3 mps 757 mmHg 66%
    20:00 +29°C° 0 mm 2 mps 758 mmHg 73%
    21:00 +29°C° 0 mm 2 mps 757 mmHg 70%
    22:00 +29°C° 0 mm 2 mps 757 mmHg 68%
    23:00 +29°C° 0 mm 2 mps 757 mmHg 66%

    Tomorrow, 21 September, Thursday

    Time Temperature Precipitation Wind Pressure Humidity
    00:00 +29°C° 0 mm 2 mps 757 mmHg 61%
    01:00 +29°C° 0 mm 2 mps 757 mmHg 56%
    02:00 +29°C° 0 mm 2 mps 757 mmHg 52%
    03:00 +29°C° 0 mm 2 mps 757 mmHg 49%
    04:00 +29°C° 0 mm 2 mps 757 mmHg 45%
    05:00 +29°C° 0 mm 2 mps 757 mmHg 42%
    06:00 +31°C° 0 mm 2 mps 757 mmHg 39%
    07:00 +32°C° 0 mm 2 mps 757 mmHg 35%
    08:00 +35°C° 0 mm 2 mps 757 mmHg 32%
    09:00 +36°C° 0 mm 3 mps 757 mmHg 31%
    10:00 +37°C° 0 mm 3 mps 757 mmHg 30%
    11:00 +38°C° 0 mm 4 mps 757 mmHg 29%
    12:00 +39°C° 0 mm 5 mps 756 mmHg 29%
    13:00 +39°C° 0 mm 6 mps 756 mmHg 29%
    14:00 +39°C° 0 mm 6 mps 756 mmHg 29%
    15:00 +38°C° 0 mm 7 mps 756 mmHg 32%
    16:00 +35°C° 0 mm 7 mps 756 mmHg 35%
    17:00 +34°C° 0 mm 7 mps 755 mmHg 38%
    18:00 +33°C° 0 mm 7 mps 756 mmHg 45%
    19:00 +30°C° 0 mm 7 mps 756 mmHg 52%
    20:00 +28°C° 0 mm 7 mps 757 mmHg 59%
    21:00 +27°C° 0 mm 6 mps 757 mmHg 60%
    22:00 +27°C° 0 mm 6 mps 757 mmHg 62%
    23:00 +26°C° 0 mm 5 mps 757 mmHg 63%

    Day after tomorrow, 22 September, Friday

    Time Temperature Precipitation Wind Pressure Humidity
    00:00 +26°C° 0 mm 5 mps 757 mmHg 62%
    01:00 +26°C° 0 mm 5 mps 757 mmHg 62%
    02:00 +25°C° 0 mm 5 mps 757 mmHg 61%
    03:00 +25°C° 0 mm 5 mps 757 mmHg 59%
    04:00 +25°C° 0 mm 5 mps 757 mmHg 57%
    05:00 +23°C° 0 mm 5 mps 757 mmHg 55%
    06:00 +25°C° 0 mm 5 mps 757 mmHg 50%
    07:00 +27°C° 0 mm 5 mps 757 mmHg 44%
    08:00 +28°C° 0 mm 4 mps 757 mmHg 39%
    09:00 +29°C° 0 mm 4 mps 757 mmHg 36%
    10:00 +30°C° 0 mm 4 mps 758 mmHg 33%
    11:00 +31°C° 0 mm 3 mps 758 mmHg 30%
    12:00 +32°C° 0 mm 4 mps 757 mmHg 29%
    13:00 +33°C° 0 mm 4 mps 757 mmHg 28%
    14:00 +33°C° 0 mm 4 mps 757 mmHg 27%
    15:00 +33°C° 0 mm 4 mps 757 mmHg 30%
    16:00 +32°C° 0 mm 5 mps 757 mmHg 32%
    17:00 +30°C° 0 mm 5 mps 757 mmHg 34%
    18:00 +29°C° 0 mm 4 mps 758 mmHg 38%
    19:00 +27°C° 0 mm 3 mps 758 mmHg 43%
    20:00 +26°C° 0 mm 3 mps 759 mmHg 47%
    21:00 +25°C° 0 mm 3 mps 759 mmHg 44%
    22:00 +25°C° 0 mm 3 mps 759 mmHg 40%
    23:00 +25°C° 0 mm 3 mps 759 mmHg 37%

    23 September, Saturday

    Time Temperature Precipitation Wind Pressure Humidity
    00:00 +25°C° 0 mm 3 mps 759 mmHg 37%
    01:00 +23°C° 0 mm 4 mps 759 mmHg 36%
    02:00 +23°C° 0 mm 4 mps 759 mmHg 36%
    03:00 +23°C° 0 mm 4 mps 759 mmHg 37%
    04:00 +23°C° 0 mm 4 mps 759 mmHg 37%
    05:00 +22°C° 0 mm 4 mps 759 mmHg 38%
    06:00 +25°C° 0 mm 4 mps 759 mmHg 36%
    07:00 +26°C° 0 mm 4 mps 760 mmHg 33%
    08:00 +28°C° 0 mm 4 mps 760 mmHg 31%
    09:00 +29°C° 0 mm 3 mps 760 mmHg 28%
    10:00 +30°C° 0 mm 3 mps 760 mmHg 26%
    11:00 +32°C° 0 mm 2 mps 760 mmHg 23%
    12:00 +32°C° 0 mm 2 mps 759 mmHg 23%
    13:00 +32°C° 0 mm 2 mps 759 mmHg 23%
    14:00 +32°C° 0 mm 2 mps 759 mmHg 23%
    15:00 +31°C° 0 mm 2 mps 759 mmHg 26%
    16:00 +30°C° 0 mm 2 mps 759 mmHg 29%
    17:00 +30°C° 0 mm 2 mps 759 mmHg 32%
    18:00 +28°C° 0 mm 2 mps 759 mmHg 36%
    19:00 +26°C° 0 mm 2 mps 759 mmHg 41%
    20:00 +25°C° 0 mm 2 mps 760 mmHg 45%
    21:00 +24°C° 0 mm 2 mps 760 mmHg 45%
    22:00 +24°C° 0 mm 1 mps 760 mmHg 45%
    23:00 +24°C° 0 mm 1 mps 760 mmHg 45%

    24 September, Sunday

    Time Temperature Precipitation Wind Pressure Humidity
    00:00 +24°C° 0 mm 1 mps 759 mmHg 45%
    01:00 +24°C° 0 mm 1 mps 759 mmHg 44%
    02:00 +23°C° 0 mm 2 mps 759 mmHg 44%
    03:00 +23°C° 0 mm 2 mps 759 mmHg 43%
    04:00 +23°C° 0 mm 2 mps 759 mmHg 42%
    05:00 +23°C° 0 mm 2 mps 759 mmHg 42%
    06:00 +25°C° 0 mm 2 mps 759 mmHg 38%
    07:00 +26°C° 0 mm 1 mps 759 mmHg 34%
    08:00 +28°C° 0 mm 1 mps 760 mmHg 29%
    09:00 +29°C° 0 mm 1 mps 759 mmHg 27%
    10:00 +30°C° 0 mm 1 mps 759 mmHg 25%
    11:00 +31°C° 0 mm 1 mps 759 mmHg 23%
    12:00 +31°C° 0 mm 2 mps 759 mmHg 24%
    13:00 +31°C° 0 mm 2 mps 758 mmHg 25%
    14:00 +31°C° 0 mm 2 mps 758 mmHg 27%
    15:00 +31°C° 0 mm 2 mps 758 mmHg 31%
    16:00 +30°C° 0 mm 2 mps 758 mmHg 34%
    17:00 +29°C° 0 mm 2 mps 759 mmHg 38%
    18:00 +27°C° 0 mm 2 mps 759 mmHg 43%
    19:00 +26°C° 0 mm 2 mps 759 mmHg 49%
    20:00 +24°C° 0 mm 1 mps 759 mmHg 54%
    21:00 +24°C° 0 mm 2 mps 759 mmHg 53%
    22:00 +24°C° 0 mm 2 mps 759 mmHg 52%
    23:00 +24°C° 0 mm 2 mps 758 mmHg 51%

    25 September, Monday

    Time Temperature Precipitation Wind Pressure Humidity
    00:00 +24°C° 0 mm 2 mps 758 mmHg 49%
    01:00 +24°C° 0 mm 2 mps 758 mmHg 47%
    02:00 +23°C° 0 mm 2 mps 758 mmHg 45%
    03:00 +24°C° 0 mm 1 mps 758 mmHg 43%
    04:00 +24°C° 0 mm 1 mps 758 mmHg 41%
    05:00 +24°C° 0 mm 1 mps 758 mmHg 39%
    06:00 +25°C° 0 mm 1 mps 758 mmHg 36%
    07:00 +27°C° 0 mm 1 mps 758 mmHg 32%
    08:00 +28°C° 0 mm 1 mps 758 mmHg 29%
    09:00 +30°C° 0 mm 1 mps 758 mmHg 26%
    10:00 +31°C° 0 mm 1 mps 758 mmHg 24%
    11:00 +32°C° 0 mm 2 mps 758 mmHg 22%
    12:00 +32°C° 0 mm 2 mps 758 mmHg 23%
    13:00 +32°C° 0 mm 2 mps 757 mmHg 23%
    14:00 +34°C° 0 mm 3 mps 757 mmHg 24%
    15:00 +33°C° 0 mm 3 mps 757 mmHg 27%
    16:00 +31°C° 0 mm 3 mps 757 mmHg 30%
    17:00 +30°C° 0 mm 2 mps 757 mmHg 33%
    18:00 +28°C° 0 mm 2 mps 757 mmHg 37%
    19:00 +26°C° 0 mm 2 mps 758 mmHg 42%
    20:00 +24°C° 0 mm 2 mps 758 mmHg 47%
    21:00 +24°C° 0 mm 1 mps 758 mmHg 45%
    22:00 +24°C° 0 mm 1 mps 757 mmHg 43%
    23:00 +24°C° 0 mm 1 mps 757 mmHg 42%
    Show more